sat.trackr.live / text

‹ back to catalog

STARLINK-30525

NORAD 58012 · 2023-153X

PAYLOAD ACTIVE UNKNOWN

§ Identity

Operator
Country
US
Launch date
2023-10-05
Launch site
AFETR
Launch vehicle
Mass (kg)
RCS (m²)

Purposes: comms

External: N2YO · Heavens-Above · Gunter

§ Orbital elements

Epoch: 2026-09-20T16:57:33.474816Z

Period
94.27 min
Inclination
43.0055°
Eccentricity
0.0001322
Mean motion
15.27579120 rev/d
Perigee alt
482.1 km
Apogee alt
484.0 km
Semi-major
6,861.2 km
B*
1.6218e-5
RAAN
45.5175°
Arg perigee
279.9126°
Mean anomaly
80.1576°
Rev number
16,472

§ Raw data

STARLINK-305251 58012U 23153X   26263.70663744  .00000184  00000+0  16218-4 0  99902 58012  43.0055  45.5175 0001322 279.9126  80.1576 15.27579120164722

JSON: /api/v1/satellites/58012 · /tle

For live sub-satellite position, see the globe view (requires WebGL).

§ Visibility from observer

Set your observer location to see the next 7 days of passes ≥ 10°. The values pass through the URL so the page stays shareable.

No JS? Fill the form by hand. The geolocation button needs JavaScript.